Weather

DAILY 7 DAY TOTAL
onrain

Note: Some stations are located near irrigated fields and may also report irrigation

Alliston Mount Forest Blyth Guelph Grand Bend Strathroy Woodstock Belmont Simcoe Leamington Chatham West Lorne






Chatham WIN - Historical Weather Data
Date Max Temp (°C) Min Temp (°C) Avg Temp (°C) Rain (mm) 7Day Rain(mm) Total Rain(mm) Avg RH (%)
5/21/2022 27.0 17.5 21.9 6.6 22.2 42.0 86.9
5/20/2022 27.4 17.3 21.9 1.2 15.6 35.4 87.1
5/19/2022 23.6 11.6 17.3 0.0 14.4 34.2 88.6
5/18/2022 12.7 7.1 10.6 7.4 14.4 34.2 95.8
5/17/2022 18.1 6.4 12.9 0.0 8.0 26.8 71.9
5/16/2022 21.9 11.4 15.5 6.8 8.0 26.8 85.3
5/15/2022 30.0 12.9 20.9 0.2 1.2 20.0 73.6
5/14/2022 27.1 15.1 20.6 0.0 1.0 19.8 82.3
5/13/2022 27.1 13.6 20.5 0.0 1.0 19.8 70.5
5/12/2022 28.3 9.3 19.2 0.0 2.4 19.8 49.4
5/11/2022 26.8 14.4 19.3 1.0 2.4 19.8 45.2
5/10/2022 25.3 8.5 16.7 0.0 1.6 18.8 49.5
5/9/2022 20.7 5.8 14.3 0.0 13.2 18.8 55.8
5/8/2022 17.1 2.8 10.9 0.0 13.4 18.8 59.7
5/7/2022 19.0 4.7 13.1 0.0 18.8 18.8 48.3
5/6/2022 16.4 9.8 12.4 1.4 18.8 18.8 72.6
5/5/2022 15.0 1.4 9.0 0.0 17.4 17.4 87.2
5/4/2022 11.8 3.5 8.9 0.2 17.4 17.4 95.8
5/3/2022 11.8 7.6 9.9 11.6 17.2 17.2 98.6
5/2/2022 14.2 10.0 11.4 0.2 5.6 5.6 86.7
5/1/2022 21.6 7.5 13.4 5.4 11.6 5.4 77.9